Weather History for KEWB - September, 2012

Change the Weather History Date:

Saturday, September 8, 2012

  Actual Average Record
Temperature  
Mean Temperature 75 °F -  
Max Temperature 80 °F 75 °F 85 °F (1991)
Min Temperature 70 °F 59 °F 47 °F (1978)
Cooling Degree Days 10    
Growing Degree Days 25 (Base 50)    
Moisture  
Dew Point 71 °F    
Average Humidity 88    
Maximum Humidity 94    
Minimum Humidity 72    
Precipitation  
Precipitation 0.44 in - - ()
Sea Level Pressure  
Sea Level Pressure 29.79 in    
Wind  
Wind Speed 11 mph (South)    
Max Wind Speed 23 mph    
Max Gust Speed 34 mph    
Visibility 8 miles    
Events Rain    
Averages and records for this station are not official NWS values.
T = Trace of Precipitation, MM = Missing Value Source: NWS Daily Summary

Daily Weather History Graph

Daily Weather History Graph

Search for Another Location

Airport or City:

Trip Planner

Search our weather history database for the weather conditions in past years. The results will help you decide how hot, cold, wet, or windy it might be!

Date:

Astronomy

Sep. 08, 2012 Rise Set
Actual Time 6:17 AM EDT 7:04 PM EDT
Civil Twilight 5:49 AM EDT 7:32 PM EDT
Nautical Twilight 5:15 AM EDT 8:05 PM EDT
Astronomical Twilight 4:41 AM EDT 8:40 PM EDT
Moon 11:41 PM EDT (9/8) 2:02 PM EDT (9/8)
Length of Visible Light 13h 43m
Length of Day
12h 47m
Waning Gibbous, 49% of the Moon is Illuminated
Sep 8
Waning Gibbous
Sep 15
New
Sep 22
First Quarter
Sep 29
Full
Oct 8
Last Quarter

Hourly Weather History & Observations

Time (EDT) Temp. Dew Point Humidity Pressure Visibility Wind Dir Wind Speed Gust Speed Precip Events Conditions
12:53 AM 73.0 °F 71.1 °F 93% 29.87 in 6.0 mi South 10.4 mph - N/A   Overcast
1:53 AM 73.0 °F 70.0 °F 90% 29.89 in 6.0 mi South 6.9 mph - N/A   Overcast
2:10 AM 73.4 °F 71.6 °F 94% 29.91 in 5.0 mi SSW 9.2 mph - N/A   Overcast
2:53 AM 73.0 °F 70.0 °F 90% 29.91 in 6.0 mi South 9.2 mph - N/A   Mostly Cloudy
3:34 AM 71.6 °F 69.8 °F 94% 29.91 in 6.0 mi SSW 4.6 mph - N/A   Scattered Clouds
3:53 AM 71.1 °F 69.1 °F 93% 29.90 in 5.0 mi South 3.5 mph - N/A   Clear
4:53 AM 71.1 °F 69.1 °F 93% 29.89 in 9.0 mi South 5.8 mph - N/A   Clear
5:53 AM 71.1 °F 69.1 °F 93% 29.88 in 10.0 mi South 5.8 mph - N/A   Scattered Clouds
6:45 AM 71.6 °F 69.8 °F 94% 29.89 in 7.0 mi South 9.2 mph - N/A   Mostly Cloudy
6:53 AM 72.0 °F 70.0 °F 93% 29.89 in 8.0 mi South 9.2 mph - N/A   Scattered Clouds
7:01 AM 71.6 °F 69.8 °F 94% 29.88 in 9.0 mi South 6.9 mph - N/A   Scattered Clouds
7:12 AM 71.6 °F 69.8 °F 94% 29.88 in 8.0 mi South 5.8 mph - N/A   Mostly Cloudy
7:25 AM 73.4 °F 69.8 °F 88% 29.88 in 9.0 mi South 8.1 mph - N/A   Mostly Cloudy
7:36 AM 73.4 °F 69.8 °F 88% 29.88 in 10.0 mi South 6.9 mph - N/A   Mostly Cloudy
7:43 AM 73.4 °F 71.6 °F 94% 29.88 in 10.0 mi South 9.2 mph - N/A   Mostly Cloudy
7:53 AM 73.0 °F 71.1 °F 93% 29.88 in 10.0 mi South 8.1 mph - N/A   Mostly Cloudy
8:01 AM 73.4 °F 71.6 °F 94% 29.87 in 10.0 mi South 9.2 mph - N/A   Mostly Cloudy
8:53 AM 75.9 °F 71.1 °F 85% 29.86 in 10.0 mi South 13.8 mph 23.0 mph N/A   Mostly Cloudy
9:02 AM 75.2 °F 71.6 °F 89% 29.86 in 10.0 mi SSE 12.7 mph 23.0 mph N/A   Mostly Cloudy
9:10 AM 75.2 °F 69.8 °F 83% 29.86 in 10.0 mi South 17.3 mph 26.5 mph N/A   Mostly Cloudy
9:53 AM 75.9 °F 70.0 °F 82% 29.86 in 10.0 mi South 13.8 mph - N/A   Overcast
10:14 AM 77.0 °F 69.8 °F 78% 29.85 in 10.0 mi South 17.3 mph 25.3 mph N/A   Mostly Cloudy
10:53 AM 78.1 °F 69.1 °F 74% 29.84 in 10.0 mi South 17.3 mph 24.2 mph N/A   Mostly Cloudy
11:53 AM 79.0 °F 69.1 °F 72% 29.82 in 10.0 mi South 16.1 mph 24.2 mph N/A   Mostly Cloudy
12:53 PM 79.0 °F 70.0 °F 74% 29.80 in 10.0 mi South 19.6 mph 27.6 mph N/A   Overcast
1:53 PM 79.0 °F 71.1 °F 77% 29.77 in 10.0 mi South 17.3 mph 25.3 mph N/A   Overcast
2:53 PM 77.0 °F 71.1 °F 82% 29.75 in 10.0 mi South 18.4 mph 26.5 mph N/A   Overcast
3:53 PM 78.1 °F 72.0 °F 81% 29.72 in 10.0 mi South 16.1 mph 28.8 mph N/A   Overcast
4:00 PM 78.8 °F 71.6 °F 78% 29.71 in 10.0 mi South 17.3 mph 29.9 mph N/A   Overcast
4:53 PM 78.1 °F 73.0 °F 84% 29.70 in 10.0 mi South 16.1 mph 28.8 mph N/A   Overcast
5:53 PM 78.1 °F 73.0 °F 84% 29.68 in 10.0 mi South 16.1 mph 27.6 mph N/A   Overcast
6:53 PM 77.0 °F 73.0 °F 88% 29.67 in 9.0 mi South 17.3 mph 26.5 mph N/A   Overcast
7:53 PM 77.0 °F 73.0 °F 88% 29.69 in 10.0 mi South 16.1 mph 28.8 mph N/A   Overcast
8:46 PM 77.0 °F 73.4 °F 89% 29.68 in 9.0 mi SSW 20.7 mph 28.8 mph N/A   Overcast
8:53 PM 77.0 °F 73.0 °F 88% 29.68 in 9.0 mi South 19.6 mph 28.8 mph N/A   Overcast
9:37 PM 77.0 °F 73.4 °F 89% 29.67 in 8.0 mi SSW 18.4 mph 28.8 mph 0.00 in Rain Light Rain
9:53 PM 77.0 °F 73.0 °F 88% 29.67 in 7.0 mi SSW 19.6 mph 27.6 mph 0.01 in   Overcast
10:11 PM 75.2 °F 71.6 °F 89% 29.67 in 2.5 mi SSW 19.6 mph 27.6 mph 0.07 in Rain Rain
10:13 PM 75.2 °F 71.6 °F 89% 29.68 in 1.8 mi SSW 23.0 mph 31.1 mph 0.14 in Rain Heavy Rain
10:17 PM 73.4 °F 71.6 °F 94% 29.67 in 0.8 mi SW 23.0 mph 34.5 mph 0.31 in Rain Heavy Rain
10:26 PM 75.2 °F 71.6 °F 89% 29.67 in 1.5 mi SSW 20.7 mph 31.1 mph 0.38 in Rain Heavy Rain
10:30 PM 75.2 °F 71.6 °F 89% 29.67 in 3.0 mi SSW 18.4 mph 31.1 mph 0.38 in Rain Light Rain
10:43 PM 75.2 °F 71.6 °F 89% 29.67 in 5.0 mi SW 12.7 mph 20.7 mph 0.39 in Rain Light Rain
10:53 PM 75.0 °F 72.0 °F 90% 29.68 in 2.5 mi WSW 9.2 mph - 0.43 in Rain Rain
11:00 PM 75.2 °F 71.6 °F 89% 29.68 in 5.0 mi WSW 11.5 mph - 0.00 in Rain Light Rain
11:53 PM 70.0 °F 68.0 °F 93% 29.71 in 10.0 mi Calm Calm - 0.00 in   Scattered Clouds